• In Uzbekistan
  • List of Countries
  • For 7 days
  • Water Temperature
  • Weather Map
  • Weather Widgets
  • user-avatar
    Login

    Hourly Weather Goiania

    Today, 22 January, Wednesday

    Time Temperature Precipitation Wind Pressure Humidity
    00:00 +22°C° 0.4 mm 3 mps 695 mmHg 94%
    01:00 +22°C° 1.6 mm 3 mps 695 mmHg 94%
    02:00 +22°C° 1.6 mm 3 mps 694 mmHg 95%
    03:00 +22°C° 1.6 mm 3 mps 694 mmHg 96%
    04:00 +22°C° 0.3 mm 3 mps 694 mmHg 95%
    05:00 +23°C° 0.3 mm 2 mps 694 mmHg 95%
    06:00 +23°C° 0.3 mm 2 mps 694 mmHg 95%
    07:00 +22°C° 0.4 mm 3 mps 695 mmHg 93%
    08:00 +24°C° 0.4 mm 3 mps 695 mmHg 92%
    09:00 +25°C° 0.4 mm 3 mps 696 mmHg 91%
    10:00 +26°C° 1.6 mm 3 mps 695 mmHg 89%
    11:00 +27°C° 1.6 mm 4 mps 695 mmHg 87%
    12:00 +28°C° 1.6 mm 4 mps 695 mmHg 85%
    13:00 +28°C° 2.1 mm 4 mps 694 mmHg 85%
    14:00 +28°C° 2.1 mm 4 mps 694 mmHg 85%
    15:00 +28°C° 2.1 mm 4 mps 693 mmHg 85%
    16:00 +27°C° 0.9 mm 4 mps 693 mmHg 87%
    17:00 +27°C° 0.9 mm 3 mps 693 mmHg 88%
    18:00 +26°C° 0.9 mm 3 mps 693 mmHg 90%
    19:00 +25°C° 1.5 mm 3 mps 694 mmHg 91%
    20:00 +25°C° 1.5 mm 3 mps 694 mmHg 93%
    21:00 +24°C° 1.5 mm 3 mps 694 mmHg 94%
    22:00 +24°C° 1.9 mm 3 mps 694 mmHg 95%
    23:00 +22°C° 1.9 mm 4 mps 695 mmHg 95%

    Tomorrow, 23 January, Thursday

    Time Temperature Precipitation Wind Pressure Humidity
    00:00 +22°C° 1.9 mm 4 mps 695 mmHg 96%
    01:00 +22°C° 3 mm 4 mps 694 mmHg 96%
    02:00 +22°C° 3 mm 4 mps 694 mmHg 96%
    03:00 +22°C° 3 mm 3 mps 693 mmHg 97%
    04:00 +22°C° 1.3 mm 3 mps 693 mmHg 96%
    05:00 +22°C° 1.3 mm 3 mps 694 mmHg 96%
    06:00 +22°C° 1.3 mm 3 mps 694 mmHg 95%
    07:00 +22°C° 0.3 mm 4 mps 694 mmHg 95%
    08:00 +22°C° 0.3 mm 4 mps 695 mmHg 94%
    09:00 +23°C° 0.3 mm 4 mps 695 mmHg 94%
    10:00 +23°C° 0.5 mm 4 mps 695 mmHg 92%
    11:00 +25°C° 0.5 mm 5 mps 695 mmHg 91%
    12:00 +26°C° 0.5 mm 5 mps 695 mmHg 89%
    13:00 +26°C° 0.9 mm 5 mps 694 mmHg 89%
    14:00 +25°C° 0.9 mm 5 mps 694 mmHg 90%
    15:00 +25°C° 0.9 mm 5 mps 693 mmHg 90%
    16:00 +25°C° 0.2 mm 5 mps 693 mmHg 90%
    17:00 +25°C° 0.2 mm 5 mps 693 mmHg 91%
    18:00 +25°C° 0.2 mm 4 mps 693 mmHg 91%
    19:00 +23°C° 0 mm 4 mps 693 mmHg 92%
    20:00 +23°C° 0 mm 4 mps 693 mmHg 92%
    21:00 +23°C° 0 mm 4 mps 694 mmHg 93%
    22:00 +23°C° 0 mm 4 mps 694 mmHg 92%
    23:00 +22°C° 0 mm 5 mps 694 mmHg 92%

    Day after tomorrow, 24 January, Friday

    Time Temperature Precipitation Wind Pressure Humidity
    00:00 +22°C° 0 mm 5 mps 694 mmHg 91%
    01:00 +22°C° 0.1 mm 5 mps 694 mmHg 91%
    02:00 +22°C° 0.1 mm 5 mps 693 mmHg 92%
    03:00 +22°C° 0.1 mm 5 mps 693 mmHg 92%
    04:00 +22°C° 0.3 mm 5 mps 693 mmHg 92%
    05:00 +22°C° 0.3 mm 5 mps 693 mmHg 93%
    06:00 +22°C° 0.3 mm 5 mps 694 mmHg 94%
    07:00 +22°C° 1.6 mm 5 mps 694 mmHg 94%
    08:00 +22°C° 1.6 mm 5 mps 695 mmHg 95%
    09:00 +22°C° 1.6 mm 5 mps 695 mmHg 95%
    10:00 +23°C° 0.2 mm 5 mps 695 mmHg 93%
    11:00 +23°C° 0.2 mm 5 mps 695 mmHg 91%
    12:00 +25°C° 0.2 mm 5 mps 695 mmHg 89%
    13:00 +24°C° 0.5 mm 6 mps 695 mmHg 88%
    14:00 +26°C° 0.5 mm 6 mps 695 mmHg 87%
    15:00 +26°C° 0.5 mm 6 mps 694 mmHg 86%
    16:00 +24°C° 0.1 mm 6 mps 694 mmHg 86%
    17:00 +25°C° 0.1 mm 5 mps 694 mmHg 87%
    18:00 +25°C° 0.1 mm 5 mps 694 mmHg 87%
    19:00 +23°C° 0 mm 5 mps 695 mmHg 87%
    20:00 +23°C° 0 mm 6 mps 695 mmHg 87%
    21:00 +22°C° 0 mm 6 mps 695 mmHg 87%
    22:00 +22°C° 0.1 mm 6 mps 696 mmHg 87%
    23:00 +22°C° 0.1 mm 6 mps 696 mmHg 87%

    25 January, Saturday

    Time Temperature Precipitation Wind Pressure Humidity
    00:00 +22°C° 0.1 mm 6 mps 696 mmHg 86%
    01:00 +22°C° 0.2 mm 6 mps 696 mmHg 88%
    02:00 +22°C° 0.2 mm 5 mps 696 mmHg 90%
    03:00 +22°C° 0.2 mm 5 mps 695 mmHg 93%
    04:00 +22°C° 0.1 mm 5 mps 695 mmHg 93%
    05:00 +22°C° 0.1 mm 5 mps 696 mmHg 93%
    06:00 +22°C° 0.1 mm 4 mps 696 mmHg 94%
    07:00 +22°C° 0.6 mm 4 mps 696 mmHg 94%
    08:00 +22°C° 0.6 mm 4 mps 697 mmHg 94%
    09:00 +22°C° 0.6 mm 5 mps 698 mmHg 95%
    10:00 +22°C° 0.4 mm 5 mps 698 mmHg 94%
    11:00 +22°C° 0.4 mm 5 mps 698 mmHg 93%
    12:00 +23°C° 0.4 mm 5 mps 698 mmHg 93%
    13:00 +23°C° 0.3 mm 5 mps 698 mmHg 93%
    14:00 +22°C° 0.3 mm 4 mps 697 mmHg 93%
    15:00 +22°C° 0.3 mm 4 mps 697 mmHg 94%
    16:00 +22°C° 0.2 mm 4 mps 697 mmHg 93%
    17:00 +22°C° 0.2 mm 4 mps 697 mmHg 93%
    18:00 +22°C° 0.2 mm 4 mps 697 mmHg 93%
    19:00 +22°C° 0 mm 4 mps 697 mmHg 93%
    20:00 +22°C° 0 mm 4 mps 697 mmHg 94%
    21:00 +21°C° 0 mm 4 mps 698 mmHg 94%
    22:00 +21°C° 0 mm 3 mps 698 mmHg 94%
    23:00 +21°C° 0 mm 2 mps 698 mmHg 94%

    26 January, Sunday

    Time Temperature Precipitation Wind Pressure Humidity
    00:00 +21°C° 0 mm 2 mps 698 mmHg 94%
    01:00 +21°C° 0 mm 2 mps 698 mmHg 94%
    02:00 +21°C° 0 mm 2 mps 698 mmHg 94%
    03:00 +21°C° 0 mm 2 mps 697 mmHg 94%
    04:00 +21°C° 0.1 mm 2 mps 697 mmHg 94%
    05:00 +21°C° 0.1 mm 2 mps 697 mmHg 95%
    06:00 +21°C° 0.1 mm 2 mps 697 mmHg 95%
    07:00 +21°C° 0.1 mm 2 mps 698 mmHg 95%
    08:00 +22°C° 0.1 mm 3 mps 698 mmHg 94%
    09:00 +22°C° 0.1 mm 3 mps 699 mmHg 94%
    10:00 +22°C° 0.7 mm 3 mps 699 mmHg 94%
    11:00 +22°C° 0.7 mm 3 mps 699 mmHg 94%
    12:00 +22°C° 0.7 mm 3 mps 699 mmHg 94%
    13:00 +24°C° 0.3 mm 3 mps 698 mmHg 92%
    14:00 +24°C° 0.3 mm 3 mps 697 mmHg 90%
    15:00 +25°C° 0.3 mm 3 mps 697 mmHg 89%
    16:00 +25°C° 0.1 mm 3 mps 697 mmHg 89%
    17:00 +25°C° 0.1 mm 3 mps 697 mmHg 89%
    18:00 +25°C° 0.1 mm 3 mps 697 mmHg 89%
    19:00 +24°C° 0 mm 2 mps 697 mmHg 91%
    20:00 +23°C° 0 mm 2 mps 697 mmHg 93%
    21:00 +21°C° 0 mm 2 mps 698 mmHg 95%
    22:00 +21°C° 0 mm 2 mps 698 mmHg 95%
    23:00 +21°C° 0 mm 2 mps 698 mmHg 95%

    27 January, Monday

    Time Temperature Precipitation Wind Pressure Humidity
    00:00 +21°C° 0 mm 2 mps 698 mmHg 96%
    01:00 +21°C° 0 mm 2 mps 698 mmHg 96%
    02:00 +22°C° 0 mm 1 mps 698 mmHg 96%
    03:00 +21°C° 0 mm 1 mps 697 mmHg 96%
    04:00 +22°C° 0 mm 1 mps 698 mmHg 95%
    05:00 +22°C° 0 mm 1 mps 698 mmHg 94%
    06:00 +22°C° 0 mm 1 mps 698 mmHg 93%
    07:00 +23°C° 0 mm 2 mps 699 mmHg 91%
    08:00 +24°C° 0 mm 3 mps 699 mmHg 88%
    09:00 +25°C° 0 mm 3 mps 700 mmHg 85%
    10:00 +26°C° 0.6 mm 4 mps 700 mmHg 84%
    11:00 +26°C° 0.6 mm 4 mps 700 mmHg 84%
    12:00 +27°C° 0.6 mm 4 mps 700 mmHg 83%
    13:00 +27°C° 1.1 mm 4 mps 699 mmHg 83%
    14:00 +27°C° 1.1 mm 4 mps 698 mmHg 83%
    15:00 +27°C° 1.1 mm 4 mps 698 mmHg 83%
    16:00 +27°C° 0.5 mm 3 mps 698 mmHg 84%
    17:00 +27°C° 0.5 mm 3 mps 697 mmHg 86%
    18:00 +26°C° 0.5 mm 2 mps 697 mmHg 87%
    19:00 +25°C° 0.1 mm 2 mps 698 mmHg 90%
    20:00 +24°C° 0.1 mm 2 mps 698 mmHg 92%
    21:00 +23°C° 0.1 mm 2 mps 698 mmHg 94%
    22:00 +23°C° 0.8 mm 2 mps 698 mmHg 94%
    23:00 +23°C° 0.8 mm 2 mps 698 mmHg 94%
    Show more